Regional Weather Roundup
Issued by NWS Little Rock, AR

Home | Current Version | Previous Version | Text Only | Print | Product List | Glossary Off
Versions: 1 2 3 4 5 6 7 8 9 10 11 12 13 14 15 16 17 18 19 20 21 22 23 24 25 26 27 28 29 30 31 32 33 34 35 36 37 38 39 40 41 42 43 44 45 46 47 48 49

000
ASUS44 KLZK 122005
RWRLZK

WEATHER ROUNDUP FOR ARKANSAS
NATIONAL WEATHER SERVICE LITTLE ROCK AR
300 PM CDT SAT JUL 12 2014

NOTE: "FAIR" INDICATES FEW OR NO CLOUDS BELOW 12,000 FEET WITH NO
SIGNIFICANT WEATHER AND/OR OBSTRUCTIONS TO VISIBILITY.

ARZ001-003-010-029-122100-
NORTHWEST ARKANSAS

CITY           SKY/WX    TMP DP  RH WIND       PRES   REMARKS
FAYETTEVILLE   MOSUNNY   89  71  55 SW12      30.14F HX  95
FORT SMITH     MOSUNNY   94  67  41 SW13      30.09F HX  97
HARRISON       MOSUNNY   90  67  46 S6        30.15F HX  93
BENTONVILLE    SUNNY     90  66  45 SW13      30.16S HX  92
ROGERS         SUNNY     90  67  46 W14       30.15F HX  93
SILOAM SPGS    MOSUNNY   91  68  46 SW12      30.15S HX  95
HIGHFILL       SUNNY     90  69  50 SW10      30.14F HX  94
SPRINGDALE     MOSUNNY   90  68  48 SW9G16    30.16F HX  93
$$

ARZ004-005-016-122100-
NORTH CENTRAL ARKANSAS

CITY           SKY/WX    TMP DP  RH WIND       PRES   REMARKS
BATESVILLE     MOSUNNY   91  72  52 SE8       30.11F HX  98
FLIPPIN          N/A     93  63  36 SE5       30.11F HX  94
MTN HOME       MOSUNNY   90  72  55 S3        30.11F HX  97
$$

ARZ040-041-122100-
WEST CENTRAL ARKANSAS

CITY           SKY/WX    TMP DP  RH WIND       PRES   REMARKS
MENA           MOSUNNY   95  63  34 CALM      30.15S HX  96
MOUNT IDA      SUNNY     92  70  48 VRB5      30.12F HX  97
$$

ARZ009-017-025-026-028-122100-
NORTHEAST ARKANSAS

CITY           SKY/WX    TMP DP  RH WIND       PRES   REMARKS
CORNING        LGT RAIN  91  75  59 SW7       30.10F HX 102
JONESBORO      MOSUNNY   90  74  59 VRB5      30.10F HX  99
NEWPORT        SUNNY     93  76  57 S8        30.12F HX 105
WALNUT RIDGE   MOSUNNY   91  73  55 SE3       30.09F HX 100
BLYTHEVILLE    PTSUNNY   89  74  60 SW6       30.13F HX  98
$$

ARZ022-023-033-042-044-122100-
CENTRAL ARKANSAS

CITY           SKY/WX    TMP DP  RH WIND       PRES   REMARKS
LITTLE ROCK    MOSUNNY   92  71  50 SE6       30.11F HX  98
N LITTLE ROCK  MOSUNNY   92  72  52 CALM      30.11F HX  99
SEARCY         SUNNY     94  74  52 SW6       30.12F HX 104
HOT SPRINGS    SUNNY     93  70  46 S5        30.12F HX  99
RUSSELLVILLE   SUNNY     92  72  51 CALM      30.11F HX  99
CLINTON        FAIR      93  73  52 S6        30.11F HX 102
$$

ARZ036-122100-
EAST ARKANSAS

CITY           SKY/WX    TMP DP  RH WIND       PRES   REMARKS
WEST MEMPHIS   CLOUDY    88  74  63 VRB3      30.12S HX  96
$$

ARZ050-053-066-070-073-122100-
SOUTHWEST ARKANSAS

CITY           SKY/WX    TMP DP  RH WIND       PRES   REMARKS
ARKADELPHIA    FAIR      96  72  45 W5        30.11F HX 104
CAMDEN         SUNNY     97  66  36 SW5       30.10F HX 100
TEXARKANA      MOSUNNY   94  67  41 VRB3      30.11F HX  97
EL DORADO      SUNNY     92  71  50 W6        30.12F HX  98
DE QUEEN       SUNNY     93  74  53 S6        30.10F HX 103
$$

ARZ056-057-069-122100-
SOUTHEAST ARKANSAS

CITY           SKY/WX    TMP DP  RH WIND       PRES   REMARKS
PINE BLUFF     SUNNY     92  72  51 NE6       30.12F HX  99
MONTICELLO     SUNNY     93  71  48 E9        30.12F HX 100

$$





USA.gov is the U.S. government's official web portal to all federal, state and local government web resources and services.